Location: Unspecified
(0.0000°N, 0.0000°E)
Time: 01:53:40
(UTC+00:00)

XW-2D - Pass Details

Date: 13 December 2017
Orbit: 511 x 530 km, 97.5° (Epoch: 17 January)

Event Time Altitude Azimuth Distance (km) Brightness Sun altitude
Rises 18:15:58 0° 190° (S) 2,622 ? -5.0°
Reaches altitude 10° 18:18:21 10° 204° (SSW) 1,736 ? -5.5°
Maximum altitude 18:21:22 24° 259° (WSW) 1,108 ? -6.2°
Drops below altitude 10° 18:24:25 10° 313° (NW) 1,737 ? -6.9°
Sets 18:26:48 0° 328° (NNW) 2,624 ? -7.4°
